Robstown, TX

4:09 PM CST on November 19, 2017 (GMT -0600)
Robstown

Weather History for KRBO - September, 2012

Change the Weather History Date:

Thursday, September 6, 2012

  Actual Average (KCRP) Record (KCRP)
Temperature  
Mean Temperature 88 °F -  
Max Temperature 100 °F 90 °F 100 °F (2012)
Min Temperature 76 °F 72 °F 60 °F (1974)
Cooling Degree Days 23    
Growing Degree Days 38 (Base 50)    
Moisture  
Dew Point 73 °F    
Average Humidity 65    
Maximum Humidity 89    
Minimum Humidity 35    
Precipitation  
Precipitation 0.00 in - - ()
Sea Level Pressure  
Sea Level Pressure 29.89 in    
Wind  
Wind Speed 10 mph (SSE)    
Max Wind Speed 20 mph    
Max Gust Speed 25 mph    
Visibility 10 miles    
Events      
Averages and records for this station are not official NWS values.
T = Trace of Precipitation, MM = Missing Value Source: NWS Daily Summary

Daily Weather History Graph

Daily Weather History Graph

Search for Another Location

Airport or City:

Trip Planner

Search our weather history database for the weather conditions in past years. The results will help you decide how hot, cold, wet, or windy it might be!

Date:

Astronomy

Sep. 06, 2012 Rise Set
Actual Time 7:12 AM CDT 7:45 PM CDT
Civil Twilight 6:48 AM CDT 8:08 PM CDT
Nautical Twilight 6:20 AM CDT 8:36 PM CDT
Astronomical Twilight 5:52 AM CDT 9:04 PM CDT
Moon 11:32 PM CDT (9/6) 12:37 PM CDT (9/6)
Length of Visible Light 13h 20m
Length of Day
12h 33m
Waning Gibbous, 67% of the Moon is Illuminated
Sep 6
Waning Gibbous
Sep 8
Last Quarter
Sep 15
New
Sep 22
First Quarter
Sep 29
Full

Hourly Weather History & Observations

Time (CDT) Temp. Heat Index Dew Point Humidity Pressure Visibility Wind Dir Wind Speed Gust Speed Precip Events Conditions
12:15 AM 83.1 °F 91.3 °F 76.1 °F 79% 29.88 in 10.0 mi South 13.8 mph - N/A   Clear
12:35 AM 82.8 °F 90.7 °F 76.1 °F 80% 29.88 in 10.0 mi South 12.7 mph - N/A   Clear
12:55 AM 82.6 °F 90.5 °F 76.1 °F 81% 29.89 in 10.0 mi South 10.4 mph - N/A   Clear
1:15 AM 82.4 °F 90.1 °F 76.1 °F 81% 29.89 in 10.0 mi South 10.4 mph - N/A   Clear
1:55 AM 81.9 °F 88.7 °F 75.4 °F 81% 29.89 in 10.0 mi South 5.8 mph - N/A   Clear
2:15 AM 81.5 °F 88.0 °F 75.4 °F 82% 29.90 in 10.0 mi South 8.1 mph - N/A   Clear
2:35 AM 81.1 °F 87.2 °F 75.2 °F 82% 29.89 in 10.0 mi South 8.1 mph - N/A   Clear
2:55 AM 81.0 °F 86.9 °F 75.2 °F 83% 29.89 in 10.0 mi South 6.9 mph - N/A   Clear
3:15 AM 80.6 °F 86.0 °F 75.0 °F 83% 29.89 in 10.0 mi South 6.9 mph - N/A   Clear
3:35 AM 80.1 °F 84.9 °F 74.8 °F 84% 29.89 in 10.0 mi South 5.8 mph - N/A   Clear
3:55 AM 79.5 °F - 74.7 °F 85% 29.89 in 10.0 mi SSE 5.8 mph - N/A   Clear
4:15 AM 79.2 °F - 74.5 °F 86% 29.89 in 10.0 mi SSE 4.6 mph - N/A   Clear
4:35 AM 78.8 °F - 74.5 °F 87% 29.89 in 10.0 mi SSE 3.5 mph - N/A   Clear
4:55 AM 78.8 °F - 74.5 °F 87% 29.89 in 10.0 mi SSE 4.6 mph - N/A   Clear
5:15 AM 78.4 °F - 74.5 °F 88% 29.89 in 10.0 mi SSE 4.6 mph - N/A   Clear
5:35 AM 78.3 °F - 74.5 °F 88% 29.89 in 10.0 mi SSE 4.6 mph - N/A   Clear
5:55 AM 77.4 °F - 73.6 °F 88% 29.89 in 10.0 mi SE 4.6 mph - N/A   Clear
6:15 AM 77.0 °F - 73.4 °F 89% 29.89 in 10.0 mi SE 4.6 mph - N/A   Clear
6:35 AM 76.8 °F - 73.2 °F 89% 29.90 in 10.0 mi ESE 3.5 mph - N/A   Clear
6:55 AM 76.1 °F - 72.7 °F 89% 29.91 in 10.0 mi ESE 4.6 mph - N/A   Clear
7:15 AM 76.1 °F - 72.7 °F 89% 29.91 in 10.0 mi East 3.5 mph - N/A   Clear
7:35 AM 76.6 °F - 73.0 °F 89% 29.92 in 10.0 mi ESE 5.8 mph - N/A   Clear
7:55 AM 77.9 °F - 73.9 °F 88% 29.93 in 10.0 mi ESE 4.6 mph - N/A   Clear
8:15 AM 79.7 °F - 75.2 °F 86% 29.93 in 10.0 mi SE 5.8 mph - N/A   Clear
9:15 AM 85.3 °F 95.4 °F 76.5 °F 75% 29.94 in 10.0 mi SSE 11.5 mph - N/A   Scattered Clouds
9:35 AM 86.7 °F 96.4 °F 75.4 °F 69% 29.94 in 10.0 mi South 11.5 mph - N/A   Scattered Clouds
9:55 AM 87.8 °F 97.1 °F 74.7 °F 65% 29.95 in 10.0 mi South 10.4 mph - N/A   Clear
10:15 AM 88.9 °F 98.1 °F 74.5 °F 62% 29.95 in 10.0 mi South 12.7 mph 17.3 mph N/A   Clear
10:35 AM 90.3 °F 98.7 °F 73.4 °F 57% 29.95 in 10.0 mi South 11.5 mph 18.4 mph N/A   Clear
10:55 AM 91.9 °F 100.1 °F 72.5 °F 53% 29.95 in 10.0 mi South 10.4 mph 17.3 mph N/A   Clear
11:15 AM 92.7 °F 99.9 °F 71.6 °F 50% 29.94 in 10.0 mi SSE 12.7 mph - N/A   Clear
11:35 AM 93.2 °F 101.1 °F 71.8 °F 50% 29.94 in 10.0 mi South 5.8 mph 9.2 mph N/A   Clear
11:55 AM 94.8 °F 102.8 °F 71.8 °F 47% 29.94 in 10.0 mi SSE 9.2 mph 16.1 mph N/A   Scattered Clouds
12:15 PM 95.0 °F 102.5 °F 71.1 °F 46% 29.93 in 10.0 mi SSE 11.5 mph 18.4 mph N/A   Scattered Clouds
12:35 PM 95.9 °F 102.5 °F 70.2 °F 43% 29.92 in 10.0 mi South 12.7 mph 17.3 mph N/A   Clear
12:55 PM 97.2 °F 101.3 °F 67.1 °F 37% 29.92 in 10.0 mi South 10.4 mph - N/A   Clear
1:15 PM 97.9 °F 103.3 °F 68.4 °F 38% 29.91 in 10.0 mi SSE 9.2 mph 17.3 mph N/A   Clear
1:35 PM 99.1 °F 106.6 °F 70.2 °F 39% 29.90 in 10.0 mi SE 13.8 mph 17.3 mph N/A   Clear
1:55 PM 98.1 °F 104.4 °F 69.4 °F 39% 29.89 in 10.0 mi SE 10.4 mph 18.4 mph N/A   Clear
2:15 PM 98.2 °F 103.4 °F 68.2 °F 37% 29.89 in 10.0 mi SSE 15.0 mph 25.3 mph N/A   Clear
2:35 PM 99.7 °F 104.9 °F 67.6 °F 35% 29.88 in 10.0 mi South 15.0 mph 18.4 mph N/A   Clear
2:55 PM 99.5 °F 105.2 °F 67.8 °F 36% 29.87 in 10.0 mi SE 11.5 mph 23.0 mph N/A   Clear
3:15 PM 99.7 °F 104.9 °F 67.5 °F 35% 29.87 in 10.0 mi SE 11.5 mph 19.6 mph N/A   Clear
3:35 PM 99.9 °F 106.7 °F 69.1 °F 37% 29.86 in 10.0 mi SE 12.7 mph 18.4 mph N/A   Clear
3:55 PM 100.0 °F 107.8 °F 70.3 °F 38% 29.86 in 10.0 mi ESE 17.3 mph 20.7 mph N/A   Clear
4:15 PM 99.0 °F 107.0 °F 70.9 °F 40% 29.86 in 10.0 mi SSE 12.7 mph 20.7 mph N/A   Clear
4:35 PM 98.4 °F 105.1 °F 69.6 °F 39% 29.85 in 10.0 mi SE 16.1 mph 20.7 mph N/A   Clear
4:55 PM 98.1 °F 105.7 °F 70.7 °F 41% 29.85 in 10.0 mi ESE 17.3 mph 23.0 mph N/A   Clear
5:15 PM 97.2 °F 104.5 °F 70.7 °F 42% 29.85 in 10.0 mi ESE 17.3 mph 21.9 mph N/A   Clear
5:35 PM 96.4 °F 103.0 °F 69.8 °F 42% 29.85 in 10.0 mi SE 19.6 mph - N/A   Clear
5:55 PM 95.4 °F 102.7 °F 70.9 °F 45% 29.86 in 10.0 mi SE 16.1 mph 23.0 mph N/A   Clear
6:15 PM 94.1 °F 101.8 °F 71.6 °F 48% 29.85 in 10.0 mi SE 16.1 mph 20.7 mph N/A   Clear
6:35 PM 92.8 °F 101.5 °F 72.9 °F 52% 29.85 in 10.0 mi SE 17.3 mph - N/A   Clear
6:55 PM 91.4 °F 100.1 °F 73.0 °F 55% 29.86 in 10.0 mi SE 16.1 mph - N/A   Clear
7:15 PM 90.0 °F 98.5 °F 73.4 °F 58% 29.86 in 10.0 mi SE 16.1 mph - N/A   Clear
7:35 PM 88.7 °F 96.7 °F 73.2 °F 60% 29.86 in 10.0 mi SSE 13.8 mph - N/A   Clear
7:55 PM 87.8 °F 95.6 °F 73.4 °F 62% 29.87 in 10.0 mi SE 13.8 mph - N/A   Clear
8:15 PM 86.9 °F 95.0 °F 73.8 °F 65% 29.87 in 10.0 mi SE 15.0 mph - N/A   Clear
8:35 PM 86.4 °F 94.6 °F 74.1 °F 67% 29.86 in 10.0 mi SE 12.7 mph - N/A   Clear
8:55 PM 86.0 °F 94.2 °F 74.1 °F 68% 29.87 in 10.0 mi SE 13.8 mph - N/A   Clear
9:15 PM 85.3 °F 93.7 °F 74.8 °F 71% 29.88 in 10.0 mi SE 8.1 mph - N/A   Clear
9:35 PM 85.1 °F 94.1 °F 75.7 °F 73% 29.88 in 10.0 mi SE 10.4 mph - N/A   Clear
9:55 PM 84.7 °F 94.4 °F 76.3 °F 76% 29.89 in 10.0 mi SSE 10.4 mph - N/A   Clear
10:15 PM 84.4 °F 93.9 °F 76.5 °F 77% 29.89 in 10.0 mi SSE 12.7 mph - N/A   Clear
10:35 PM 84.2 °F 93.8 °F 76.8 °F 78% 29.89 in 10.0 mi SE 10.4 mph - N/A   Clear
11:15 PM 83.5 °F 92.9 °F 77.0 °F 81% 29.89 in 10.0 mi SSE 8.1 mph - N/A   Clear
11:35 PM 83.5 °F 91.6 °F 75.7 °F 77% 29.89 in 10.0 mi SSE 13.8 mph - N/A   Clear
11:55 PM 83.5 °F 91.2 °F 75.2 °F 76% 29.90 in 10.0 mi SSE 9.2 mph - N/A   Clear